SCP
0 -0 0 0 0 -0 -0 -0 0 0 0 0 0 0 0 -0 -0 -0 -0 -0 -0 -0 -0 -0 -0 -0 -0 -0 -0 -0 -0 -0 -0 0 0 0 -0 -0 -0 -0 -0 -0 -0
0 -0 0 0 0 -0 -0 -0 0 0 -0 0 0 0 0 0 -0 -0 -0 -0 -0 -0 -0 -0 -0 -0 -0 -0 -0 -0 -0 -0 0 0 0 -0 -0 -0 -0 -0 -0 -0 -0
0 -0 -0 0 -0 -0 0 0 0 0 0 0 0 -0 -0 -0 -0 -0 -0 -0 -0 -0 -0 -0 -0 -0 -0 -0 -0 -0 0 0 0 0 -0 -0 -0 -0 -0 -0 -0 0 0
-0 -0 -0 -0 -0 -0 -0 -0 0 0 -0 -0 -0 -0 -0 -0 -0 -0 -0 -0 -0 -0 -0 -0 -0 -0 -0 -0 -0 -0 -0 0 -0 -0 0 -0 -0 -0 -0 -0 -0 0 0
-0 -0 -0 -0 -0 -0 -0 -0 0 -0 -0 -0 -0 -0 -0 -0 -0 -0 -0 -0 -0 -0 -0 -0 -0 -0 -0 -0 -0 -0 -0 -0 -0 -0 0 0 0 0 0 0 0 0 0
-0 -0 -0 -0 -0 -0 -0 -0 -0 -0 -0 -0 -0 -0 -0 -0 -0 -0 -0 -0 -0 -0 -0 -0 -0 -0 -0 -0 -0 -0 -0 -0 0 0 0 0 0 0 0 0 0 0 0
-0 -0 -0 -0 -0 -0 -0 -0 -0 -0 -0 -0 -0 -0 -0 -0 -0 -0 -0 -0 -0 -0 -0 -0 -0 -0 -0 -0 -0 0 -0 0 0 0 0 0 0 0 0 0 0 0 0
-0 -0 -0 -0 -0 -0 0 0 0 -0 -0 -0 -0 -0 -0 -0 -0 -0 -0 -0 -0 0 -0 -0 -0 -0 -0 -0 0 0 -0 -0 0 0 0 0 0 0 0 0 0 0 0
-0 -0 0 -0 -0 0 0 0 0 0 -0 -0 -0 -0 -0 -0 -0 -0 -0 -0 -0 0 0 0 0 0 0 0 0 0 -0 -0 0 0 0 0 0 0 0 0 0 0 0
0 0 0 0 0 0 0 0 0 0 0 -0 -0 -0 -0 -0 -0 0 0 0 -0 0 0 0 0 0 0 0 0 0 -0 -0 0 0 0 0 0 0 0 0 0 0 0
0 0 0 0 0 0 0 0 0 0 0 0 0 0 -0 0 0 0 0 0 0 0 0 0 0 0 0 0 0 -0 -0 0 0 0 0 0 0 0 0 0 0 0 0
0 0 0 0 0 0 0 0 0 0 0 0 0 0 0 0 0 0 0 0 0 0 0 0 0 0 0 0 0 0 0 0 0 0 0 0 0 0 0 0 0 0 0
0 0 0 0 0 0 0 0 0 0 0 0 0 0 0 0 0 0 0 0 0 0 0 0 0 0 0 0 0 0 0 0 0 0 0 0 0 0 0 0 0 0 0
0 0 0 0 0 0 0 0 0 0 0 0 0 0 0 0 0 0 0 0 0 0 0 0 0 0 0 0 0 0 0 0 0 0 0 0 0 0 0 0 0 0 0
0 0 0 0 0 0 0 0 0 0 0 0 0 0 0 0 0 0 0 0 0 0 0 0 0 0 0 0 0 0 0 0 0 0 0 0 0 0 0 0 0 0 0
0 0 0 0 0 0 0 0 0 0 0 0 0 0 0 0 0 0 0 0 0 0 0 0 0 0 0 0 0 0 0 0 0 0 0 0 0 0 0 0 0 0 0
0 0 0 0 0 0 0 0 0 0 0 0 0 0 0 0 0 0 0 0 0 0 0 0 0 0 0 0 0 0 0 0 0 0 0 0 0 0 0 0 0 0 0
0 0 0 0 0 0 0 0 0 0 0 0 0 0 0 0 0 0 0 0 0 0 0 0 0 0 0 0 0 0 0 0 0 0 0 0 0 0 0 0 0 0 0
0 0 0 0 0 0 0 0 0 0 0 0 0 0 0 0 0 0 0 0 0 0 0 0 0 0 0 0 0 0 0 0 0 0 0 0 0 0 0 0 0 0 0
0 0 0 0 0 0 0 0 0 0 0 0 0 0 0 0 0 0 0 0 0 0 0 0 0 0 0 0 0 0 0 0 0 0 0 0 0 0 0 0 0 0 0
0 0 0 0 0 0 0 0 0 0 0 0 0 0 0 0 0 0 0 0 0 0 0 0 0 0 0 0 0 0 0 0 0 0 0 0 0 0 0 0 0 0 0
0 0 0 0 0 0 0 0 0 0 0 0 0 0 0 0 0 0 0 0 0 0 0 0 0 0 0 0 0 0 0 0 0 0 0 0 0 0 0 0 0 0 0
0 0 0 0 0 0 0 0 0 0 0 0 0 0 0 0 0 0 0 0 0 0 0 0 0 0 0 0 0 0 0 0 0 0 0 0 0 0 0 0 0 0 0
0 0 0 0 0 0 0 0 0 0 0 0 0 0 0 0 0 0 0 0 0 0 0 0 0 0 0 0 0 0 0 0 0 0 0 0 0 0 0 0 0 0 0
0 0 0 0 0 0 0 0 0 0 0 0 0 0 0 0 0 0 0 0 0 0 0 0 0 0 0 0 0 0 0 0 0 0 0 0 0 0 0 0 0 0 0
0 0 0 0 0 0 0 0 0 0 0 0 0 0 0 0 0 0 0 0 0 0 0 0 0 0 0 0 0 0 0 0 0 0 0 0 0 0 0 0 0 0 0
Wind_Speed_500mb
18 14 16 18 13 14 13 15 10 5 3 2 4 5 4 3 5 18 26 25 29 24 31 31 29 30 31 33 34 33 33 34 38 40 41 42 36 34 32 30 29 29 31
24 17 20 18 17 17 15 11 6 3 4 3 5 6 5 4 9 26 26 21 25 25 26 29 29 32 31 32 34 33 34 35 39 35 33 35 30 26 30 27 25 23 18
26 18 21 18 20 15 12 9 6 6 4 5 5 13 13 14 19 27 24 25 26 27 25 27 27 31 30 30 32 33 31 32 35 33 27 20 31 20 19 16 15 11 13
26 19 18 20 19 14 12 11 10 5 5 7 12 14 18 19 22 30 22 23 26 27 29 30 27 27 27 28 29 27 26 28 39 30 31 28 17 12 13 12 13 13 16
26 21 20 19 17 13 13 13 8 5 7 6 9 15 17 17 22 28 20 26 22 24 23 25 26 25 25 26 25 23 24 31 32 23 22 19 9 11 14 11 14 14 15
26 22 23 20 16 15 13 13 10 3 2 6 5 11 11 15 19 27 19 21 22 22 21 22 24 23 22 21 21 21 21 31 21 14 12 9 9 14 12 14 16 17 18
26 22 23 22 18 18 16 11 10 6 2 5 6 6 11 15 18 24 20 20 22 21 16 17 18 17 16 17 19 20 20 24 6 17 12 14 8 13 11 17 19 20 22
26 24 20 23 20 21 19 16 14 12 6 2 4 5 7 12 16 19 20 18 20 20 17 15 13 11 12 15 16 17 17 22 9 10 3 5 9 9 13 18 19 21 20
26 24 20 23 23 25 26 24 22 19 14 7 4 3 6 7 14 16 19 17 16 15 15 13 10 9 9 10 13 14 14 18 11 7 14 5 8 8 15 16 19 18 17
27 26 23 20 22 27 28 28 28 27 21 14 10 7 6 8 8 13 15 16 14 13 12 10 7 5 5 8 9 11 11 14 8 9 4 4 1 10 13 15 17 16 17
29 27 26 26 22 22 21 28 31 30 29 22 17 10 10 13 13 14 17 15 16 14 11 6 3 0 4 5 5 7 9 5 5 6 8 2 4 9 11 16 16 15 15
33 31 28 27 26 24 23 23 34 32 34 29 21 14 13 17 16 16 17 17 14 13 12 11 8 2 4 6 5 6 5 2 2 5 18 7 8 5 10 14 16 16 15
31 32 33 29 28 26 24 24 32 34 35 30 23 21 19 21 25 23 20 19 18 17 17 15 10 7 6 8 10 5 8 5 3 3 13 10 11 7 11 14 16 16 14
34 34 37 33 30 31 26 29 27 35 38 39 35 30 28 26 26 25 24 23 25 25 20 17 14 13 14 12 11 9 6 3 4 2 16 14 17 16 16 16 18 16 16
38 36 37 40 36 33 35 32 31 32 33 32 31 32 32 31 31 32 31 30 28 25 25 22 19 20 18 15 15 12 10 10 7 6 11 16 21 21 19 19 19 21 20
40 37 37 43 44 38 38 38 37 34 34 35 34 36 36 34 34 36 37 36 33 31 28 25 24 22 20 18 18 16 14 16 13 14 15 23 24 24 26 22 21 23 23
36 35 41 43 48 47 43 41 41 40 38 39 40 39 40 41 38 38 38 38 37 35 32 31 29 26 22 20 20 19 21 21 21 21 20 20 27 23 23 24 23 25 25
36 41 41 45 50 50 50 44 43 44 44 45 43 43 46 44 43 43 42 42 40 39 38 36 31 27 25 21 21 25 24 24 27 27 28 26 25 29 23 21 19 24 25
38 41 42 45 48 50 54 49 45 46 49 49 48 48 49 48 46 48 46 44 42 42 41 38 32 29 26 27 29 28 30 29 33 33 33 33 30 29 31 24 18 19 22
43 44 45 48 51 52 52 59 53 51 52 52 52 56 53 51 50 51 53 49 46 46 45 45 43 38 35 31 32 34 33 36 38 39 40 40 37 34 32 33 24 22 21
45 44 47 52 53 54 62 67 72 68 63 57 56 61 57 55 54 56 58 59 56 53 50 48 47 47 46 39 35 40 39 41 44 47 45 43 42 36 36 35 34 29 29
56 61 58 58 58 60 65 70 70 76 77 65 61 65 65 62 61 62 61 64 64 60 57 57 57 53 50 47 46 37 30 35 47 43 46 37 32 32 34 34 35 38 44
63 70 70 67 62 64 68 71 67 70 68 70 77 78 74 71 71 70 68 65 65 65 67 65 62 59 59 56 54 41 15 19 11 27 28 30 35 38 34 38 39 43 49
57 60 65 72 74 72 76 75 79 86 82 78 77 75 77 75 76 79 77 75 72 69 74 70 67 66 64 66 59 61 60 46 23 24 34 37 40 48 47 53 52 52 55
42 50 61 64 69 71 74 81 81 84 87 79 84 80 77 78 77 78 82 80 78 77 77 74 74 73 73 73 73 68 64 63 60 65 57 48 49 55 54 61 63 62 62
34 39 46 51 60 65 74 81 87 87 88 88 88 85 82 81 80 77 78 83 83 85 85 82 77 76 78 78 78 70 67 57 60 61 68 73 70 72 69 66 67 70 72
Wind_Direction_500mb
142 179 144 148 143 150 146 145 149 135 135 171 142 154 173 104 84 122 114 103 98 88 101 100 98 98 96 91 86 83 83 83 88 81 71 71 79 76 68 73 86 76 80
147 157 149 148 147 155 155 164 174 132 83 82 151 170 187 172 139 120 115 119 114 109 97 98 98 95 92 84 80 79 82 83 84 87 81 65 69 76 91 86 77 77 66
141 165 156 154 154 157 166 169 150 99 50 76 96 121 125 136 128 119 113 106 100 111 103 103 102 95 90 83 80 81 84 83 78 72 71 87 91 88 78 65 59 30 9
146 145 163 157 159 158 167 160 141 51 53 75 91 112 111 117 116 118 119 111 112 116 104 104 105 95 89 80 78 81 85 80 86 65 74 94 89 70 50 20 8 6 4
151 159 167 160 168 168 165 157 153 95 47 65 80 117 118 121 127 124 131 112 117 116 116 108 103 92 85 81 79 80 84 87 71 64 92 95 77 18 357 356 15 28 29
157 170 164 168 173 176 172 165 169 197 21 30 98 124 127 124 125 130 130 126 124 124 117 110 99 94 85 80 76 76 84 86 92 104 96 83 51 9 1 27 32 39 37
164 184 174 172 181 185 183 181 185 209 264 359 107 117 130 130 128 135 142 132 129 134 125 109 101 92 83 74 67 71 86 102 99 108 79 71 30 359 19 29 35 36 38
173 188 194 179 191 195 186 191 194 199 216 250 66 154 158 146 136 142 147 144 135 137 137 115 108 97 79 70 65 67 76 91 61 117 102 337 30 46 25 28 33 36 37
186 182 192 191 195 202 196 203 192 200 210 218 275 210 184 186 162 155 155 152 150 142 129 128 119 92 71 66 61 62 71 104 100 53 72 328 67 44 21 22 31 35 34
191 189 188 198 201 206 205 202 194 196 210 232 261 234 224 215 208 183 174 171 163 156 157 146 113 79 55 49 49 53 67 79 90 58 78 257 34 12 18 22 25 28 28
195 195 191 195 197 195 204 209 199 198 211 223 240 238 222 216 202 190 182 185 180 179 178 160 161 137 22 15 28 36 50 77 80 104 260 277 286 8 19 19 15 18 21
199 200 201 197 199 197 196 206 193 202 214 226 232 228 211 205 204 196 205 201 198 194 196 205 219 263 304 330 343 2 41 345 82 134 255 257 282 349 7 9 7 4 6
211 205 205 203 200 198 199 191 197 202 213 219 218 228 206 206 218 219 218 208 206 210 218 224 233 243 234 224 249 264 296 3 275 251 268 262 268 309 340 350 353 349 347
212 214 216 209 206 205 203 196 203 210 216 219 220 220 223 222 222 219 225 220 215 216 213 232 245 245 251 247 257 267 299 303 323 246 286 271 269 292 311 327 334 333 330
216 222 220 218 215 213 213 211 206 212 221 221 221 222 225 228 230 225 224 223 225 226 228 233 237 249 251 253 260 260 267 303 324 310 293 309 281 276 287 304 314 316 318
231 217 223 223 223 219 221 220 218 216 221 218 221 228 227 228 232 226 226 227 229 230 230 232 237 248 253 253 257 259 254 283 293 291 313 325 345 305 285 285 297 301 304
236 226 223 229 227 226 227 228 227 228 224 230 229 231 234 231 233 226 230 232 233 233 227 230 235 239 242 246 251 251 258 265 279 285 292 294 317 323 337 300 295 296 300
224 227 230 235 238 234 227 229 231 231 233 234 237 236 238 236 234 232 231 234 234 235 236 238 242 245 242 241 248 248 251 254 278 278 279 281 290 306 321 318 303 296 292
229 227 232 236 240 242 235 229 232 234 236 236 237 239 244 241 238 236 235 235 236 236 238 239 239 238 242 241 240 243 252 252 274 275 278 280 283 286 292 305 300 298 287
238 231 230 238 240 244 240 238 234 233 233 234 235 239 240 242 239 239 238 237 236 239 240 242 242 240 240 241 245 245 251 260 267 273 277 278 282 280 279 281 284 288 294
243 244 243 238 242 238 240 238 238 237 238 237 236 241 242 244 243 240 240 240 240 242 244 246 247 243 244 243 240 252 262 261 274 276 279 278 279 276 272 272 275 282 285
250 251 251 252 244 245 242 248 244 244 244 244 249 246 247 247 247 246 245 245 246 245 245 244 243 245 247 245 241 251 261 278 276 271 266 271 274 272 274 273 276 277 276
250 248 250 245 248 249 249 242 243 245 248 249 246 251 251 247 248 249 250 249 249 249 249 248 249 249 251 250 246 234 233 238 266 264 263 265 277 280 279 282 282 279 279
253 259 254 250 249 250 246 243 241 245 247 254 254 256 257 254 250 251 252 252 250 251 252 252 252 252 251 250 252 243 245 244 260 269 267 270 268 276 278 282 282 283 283
259 251 257 259 256 248 243 239 246 245 249 254 255 254 256 258 257 253 254 253 252 251 254 255 255 253 253 254 250 255 257 254 258 256 271 268 270 276 281 283 285 285 285
291 278 264 262 260 253 242 242 241 247 249 249 251 253 255 253 257 257 253 254 254 254 255 257 258 257 257 257 259 252 256 254 261 257 260 267 269 279 282 284 283 290 289
Wind_Speed_850mb
18 14 16 18 13 14 13 15 10 5 3 2 4 5 4 3 5 18 26 25 29 24 31 31 29 30 31 33 34 33 33 34 38 40 41 42 36 34 32 30 29 29 31
24 17 20 18 17 17 15 11 6 3 4 3 5 6 5 4 9 26 26 21 25 25 26 29 29 32 31 32 34 33 34 35 39 35 33 35 30 26 30 27 25 23 18
26 18 21 18 20 15 12 9 6 6 4 5 5 13 13 14 19 27 24 25 26 27 25 27 27 31 30 30 32 33 31 32 35 33 27 20 31 20 19 16 15 11 13
26 19 18 20 19 14 12 11 10 5 5 7 12 14 18 19 22 30 22 23 26 27 29 30 27 27 27 28 29 27 26 28 39 30 31 28 17 12 13 12 13 13 16
26 21 20 19 17 13 13 13 8 5 7 6 9 15 17 17 22 28 20 26 22 24 23 25 26 25 25 26 25 23 24 31 32 23 22 19 9 11 14 11 14 14 15
26 22 23 20 16 15 13 13 10 3 2 6 5 11 11 15 19 27 19 21 22 22 21 22 24 23 22 21 21 21 21 31 21 14 12 9 9 14 12 14 16 17 18
26 22 23 22 18 18 16 11 10 6 2 5 6 6 11 15 18 24 20 20 22 21 16 17 18 17 16 17 19 20 20 24 6 17 12 14 8 13 11 17 19 20 22
26 24 20 23 20 21 19 16 14 12 6 2 4 5 7 12 16 19 20 18 20 20 17 15 13 11 12 15 16 17 17 22 9 10 3 5 9 9 13 18 19 21 20
26 24 20 23 23 25 26 24 22 19 14 7 4 3 6 7 14 16 19 17 16 15 15 13 10 9 9 10 13 14 14 18 11 7 14 5 8 8 15 16 19 18 17
27 26 23 20 22 27 28 28 28 27 21 14 10 7 6 8 8 13 15 16 14 13 12 10 7 5 5 8 9 11 11 14 8 9 4 4 1 10 13 15 17 16 17
29 27 26 26 22 22 21 28 31 30 29 22 17 10 10 13 13 14 17 15 16 14 11 6 3 0 4 5 5 7 9 5 5 6 8 2 4 9 11 16 16 15 15
33 31 28 27 26 24 23 23 34 32 34 29 21 14 13 17 16 16 17 17 14 13 12 11 8 2 4 6 5 6 5 2 2 5 18 7 8 5 10 14 16 16 15
31 32 33 29 28 26 24 24 32 34 35 30 23 21 19 21 25 23 20 19 18 17 17 15 10 7 6 8 10 5 8 5 3 3 13 10 11 7 11 14 16 16 14
34 34 37 33 30 31 26 29 27 35 38 39 35 30 28 26 26 25 24 23 25 25 20 17 14 13 14 12 11 9 6 3 4 2 16 14 17 16 16 16 18 16 16
38 36 37 40 36 33 35 32 31 32 33 32 31 32 32 31 31 32 31 30 28 25 25 22 19 20 18 15 15 12 10 10 7 6 11 16 21 21 19 19 19 21 20
40 37 37 43 44 38 38 38 37 34 34 35 34 36 36 34 34 36 37 36 33 31 28 25 24 22 20 18 18 16 14 16 13 14 15 23 24 24 26 22 21 23 23
36 35 41 43 48 47 43 41 41 40 38 39 40 39 40 41 38 38 38 38 37 35 32 31 29 26 22 20 20 19 21 21 21 21 20 20 27 23 23 24 23 25 25
36 41 41 45 50 50 50 44 43 44 44 45 43 43 46 44 43 43 42 42 40 39 38 36 31 27 25 21 21 25 24 24 27 27 28 26 25 29 23 21 19 24 25
38 41 42 45 48 50 54 49 45 46 49 49 48 48 49 48 46 48 46 44 42 42 41 38 32 29 26 27 29 28 30 29 33 33 33 33 30 29 31 24 18 19 22
43 44 45 48 51 52 52 59 53 51 52 52 52 56 53 51 50 51 53 49 46 46 45 45 43 38 35 31 32 34 33 36 38 39 40 40 37 34 32 33 24 22 21
45 44 47 52 53 54 62 67 72 68 63 57 56 61 57 55 54 56 58 59 56 53 50 48 47 47 46 39 35 40 39 41 44 47 45 43 42 36 36 35 34 29 29
56 61 58 58 58 60 65 70 70 76 77 65 61 65 65 62 61 62 61 64 64 60 57 57 57 53 50 47 46 37 30 35 47 43 46 37 32 32 34 34 35 38 44
63 70 70 67 62 64 68 71 67 70 68 70 77 78 74 71 71 70 68 65 65 65 67 65 62 59 59 56 54 41 15 19 11 27 28 30 35 38 34 38 39 43 49
57 60 65 72 74 72 76 75 79 86 82 78 77 75 77 75 76 79 77 75 72 69 74 70 67 66 64 66 59 61 60 46 23 24 34 37 40 48 47 53 52 52 55
42 50 61 64 69 71 74 81 81 84 87 79 84 80 77 78 77 78 82 80 78 77 77 74 74 73 73 73 73 68 64 63 60 65 57 48 49 55 54 61 63 62 62
34 39 46 51 60 65 74 81 87 87 88 88 88 85 82 81 80 77 78 83 83 85 85 82 77 76 78 78 78 70 67 57 60 61 68 73 70 72 69 66 67 70 72
Wind_Direction_850mb
142 179 144 148 143 150 146 145 149 135 135 171 142 154 173 104 84 122 114 103 98 88 101 100 98 98 96 91 86 83 83 83 88 81 71 71 79 76 68 73 86 76 80
147 157 149 148 147 155 155 164 174 132 83 82 151 170 187 172 139 120 115 119 114 109 97 98 98 95 92 84 80 79 82 83 84 87 81 65 69 76 91 86 77 77 66
141 165 156 154 154 157 166 169 150 99 50 76 96 121 125 136 128 119 113 106 100 111 103 103 102 95 90 83 80 81 84 83 78 72 71 87 91 88 78 65 59 30 9
146 145 163 157 159 158 167 160 141 51 53 75 91 112 111 117 116 118 119 111 112 116 104 104 105 95 89 80 78 81 85 80 86 65 74 94 89 70 50 20 8 6 4
151 159 167 160 168 168 165 157 153 95 47 65 80 117 118 121 127 124 131 112 117 116 116 108 103 92 85 81 79 80 84 87 71 64 92 95 77 18 357 356 15 28 29
157 170 164 168 173 176 172 165 169 197 21 30 98 124 127 124 125 130 130 126 124 124 117 110 99 94 85 80 76 76 84 86 92 104 96 83 51 9 1 27 32 39 37
164 184 174 172 181 185 183 181 185 209 264 359 107 117 130 130 128 135 142 132 129 134 125 109 101 92 83 74 67 71 86 102 99 108 79 71 30 359 19 29 35 36 38
173 188 194 179 191 195 186 191 194 199 216 250 66 154 158 146 136 142 147 144 135 137 137 115 108 97 79 70 65 67 76 91 61 117 102 337 30 46 25 28 33 36 37
186 182 192 191 195 202 196 203 192 200 210 218 275 210 184 186 162 155 155 152 150 142 129 128 119 92 71 66 61 62 71 104 100 53 72 328 67 44 21 22 31 35 34
191 189 188 198 201 206 205 202 194 196 210 232 261 234 224 215 208 183 174 171 163 156 157 146 113 79 55 49 49 53 67 79 90 58 78 257 34 12 18 22 25 28 28
195 195 191 195 197 195 204 209 199 198 211 223 240 238 222 216 202 190 182 185 180 179 178 160 161 137 22 15 28 36 50 77 80 104 260 277 286 8 19 19 15 18 21
199 200 201 197 199 197 196 206 193 202 214 226 232 228 211 205 204 196 205 201 198 194 196 205 219 263 304 330 343 2 41 345 82 134 255 257 282 349 7 9 7 4 6
211 205 205 203 200 198 199 191 197 202 213 219 218 228 206 206 218 219 218 208 206 210 218 224 233 243 234 224 249 264 296 3 275 251 268 262 268 309 340 350 353 349 347
212 214 216 209 206 205 203 196 203 210 216 219 220 220 223 222 222 219 225 220 215 216 213 232 245 245 251 247 257 267 299 303 323 246 286 271 269 292 311 327 334 333 330
216 222 220 218 215 213 213 211 206 212 221 221 221 222 225 228 230 225 224 223 225 226 228 233 237 249 251 253 260 260 267 303 324 310 293 309 281 276 287 304 314 316 318
231 217 223 223 223 219 221 220 218 216 221 218 221 228 227 228 232 226 226 227 229 230 230 232 237 248 253 253 257 259 254 283 293 291 313 325 345 305 285 285 297 301 304
236 226 223 229 227 226 227 228 227 228 224 230 229 231 234 231 233 226 230 232 233 233 227 230 235 239 242 246 251 251 258 265 279 285 292 294 317 323 337 300 295 296 300
224 227 230 235 238 234 227 229 231 231 233 234 237 236 238 236 234 232 231 234 234 235 236 238 242 245 242 241 248 248 251 254 278 278 279 281 290 306 321 318 303 296 292
229 227 232 236 240 242 235 229 232 234 236 236 237 239 244 241 238 236 235 235 236 236 238 239 239 238 242 241 240 243 252 252 274 275 278 280 283 286 292 305 300 298 287
238 231 230 238 240 244 240 238 234 233 233 234 235 239 240 242 239 239 238 237 236 239 240 242 242 240 240 241 245 245 251 260 267 273 277 278 282 280 279 281 284 288 294
243 244 243 238 242 238 240 238 238 237 238 237 236 241 242 244 243 240 240 240 240 242 244 246 247 243 244 243 240 252 262 261 274 276 279 278 279 276 272 272 275 282 285
250 251 251 252 244 245 242 248 244 244 244 244 249 246 247 247 247 246 245 245 246 245 245 244 243 245 247 245 241 251 261 278 276 271 266 271 274 272 274 273 276 277 276
250 248 250 245 248 249 249 242 243 245 248 249 246 251 251 247 248 249 250 249 249 249 249 248 249 249 251 250 246 234 233 238 266 264 263 265 277 280 279 282 282 279 279
253 259 254 250 249 250 246 243 241 245 247 254 254 256 257 254 250 251 252 252 250 251 252 252 252 252 251 250 252 243 245 244 260 269 267 270 268 276 278 282 282 283 283
259 251 257 259 256 248 243 239 246 245 249 254 255 254 256 258 257 253 254 253 252 251 254 255 255 253 253 254 250 255 257 254 258 256 271 268 270 276 281 283 285 285 285
291 278 264 262 260 253 242 242 241 247 249 249 251 253 255 253 257 257 253 254 254 254 255 257 258 257 257 257 259 252 256 254 261 257 260 267 269 279 282 284 283 290 289